STARLINK-1171, 45062

Orbit data source: Space-Track

STARLINK-1171, 45062 is a payload satellite owned by SpaceX/Seattle (US) in LEO that was launched on Wed, 29 Jan 2020 UTC via an FALCON 9 launch vehicle from the Air Force Eastern Test Range (AFETR). Payload-class satellites include a variety of spacecraft equipped with specific instruments for various scientific and technological missions. These include communications satellites like Starlink; space stations such as the ISS; scientific satellites like the Hubble; Earth observation satellites from companies like Planet Labs, Umbra, and HawkEye 360; GPS; miniature CubeSats for education and research; and military/defense satellites.

Loading next visibility...
Identifier
45062, 2020-006U
Orbit
LEO
Last TLE update
20 hours ago
Origin
Manufacturer
SpaceX/Seattle
Mission
Operational Commercial Communications
Bus & Motor
STARLINK, Unknown motor
Mass
260 kg wet, ~248 kg dry
Launch date (UTC)
2020-01-29 (5 years ago)
Launch vehicle
FALCON 9
Launch site
Air Force Eastern Test Range (AFETR)
Object type
Payload
Rocket body
Debris
Shape & HBR
Box + 1 Pan, 8.86 m
Radar Cross Section
13.562 m², Large (>1 m²)

Expand to show TLE details & history

TLE from 20 hours ago
0 STARLINK-1171
1 45062U 20006U   25133.46491918  .00003753  00000-0  27070-3 0  9998
2 45062  53.0535 194.3776 0001119  87.7902 272.3215 15.06402092291218
Epoch: 2025-05-13T11:09Z
Definitive object data (Epoch: 2025-05-13T11:09:29.017Z)
Latitude
-0.00001°
Longitude
155.54342°
Altitude
548.053 km
Speed
7.589 km/s
True Right ascension
12h 57m 30s
True Declination
0° 00' 00"
Sunlit
Object was in full shadow at TLE epoch
Visualization TLE readout
Latitude
-53.14672°
Longitude
58.04249°
Altitude
566.44 km
Speed
7.577 km/s
Apparent Right ascension
05h 05m 18s
Apparent Declination
-48° 13' 01"
Sunlit
Object is in daylight
Visualization observer readout
Local Sidereal Time
15:55:41
Azimuth
230.556° WSW
Elevation
-75.046°
Doppler factor
1
Orbital elements
Apogee altitude
548.251 km
Perigee altitude
546.701 km
Semi-major axis
6,925.613 km
Eccentricity
0.0001119
Inclination
53.0535°
RAAN
194.3776°
Arg. of periapsis
87.7902°
True anomaly
272.30869°
Mean anomaly
272.3215°
Eccentric anomaly
272.31509°
Mean motion
3.76579 °/min
BSTAR
0.0002707
Orbital period
95.6 mins
Loading maneuver chart data...
Loading SW <> Apogee altitude chart data...

STARLINK-1171 Visibility forecast

Observer location: undefined°, undefined°

Span
Click to sort rows by Start time (UTC) header in descending order
Start Az.
Max El. time (UTC)
Max El. Az.
Max El.
End time (UTC)
End Az.
6 mins2025-05-14 08:05:58.886Z279.346° WNW2025-05-14 08:08:58.886Z332.108° NNW23.698°2025-05-14 08:11:58.886Z27.462° NE
4 mins2025-05-14 11:28:58.886Z348.641° N2025-05-14 11:30:58.886Z24.152° NE16.665°2025-05-14 11:32:58.886Z55.695° ENE
6 mins2025-05-14 13:07:58.886Z319.879° NNW2025-05-14 13:10:58.886Z50.661° ENE40.808°2025-05-14 13:13:58.886Z114.877° SE
8 mins2025-05-15 06:18:58.886Z225.687° WSW2025-05-15 06:22:58.886Z129.282° SE44.714°2025-05-15 06:26:58.886Z51.875° ENE
|